Date String (YYYY-MM-DD hh:mm:ss) UTC,Instrument flags,Ambient pressure (hPa),Sample flow (lpm),Bypass flow (lpm),Sample temperature (°C),Ambient temperature (°C),ASC tube jacket temperature (°C),LED temperature (°C),Box temperature (°C),Sample RH (%),Span deviation,Mass concentration (μg/m³),Mass concentration (μg/m³),Mass concentration (μg/m³)
DateTimeUTC,F1_M11,P_M11,Q1_M11,Q2_M11,T1_M11,T2_M11,T3_M11,T4_M11,T5_M11,U1_M11,ZSPAN_M11,X0_M11,X2_M11,X1_M11
2022-05-07 04:00:00,,0821.7,5.00,0.00,29.5,28.1,00.0,38.4,31.3,12.4,0000.0,0012.48,0004.25,0002.67
2022-05-07 04:01:00,,0821.7,5.01,0.00,29.5,28.3,00.0,38.4,31.4,13.6,0000.0,0012.21,0004.21,0002.65
2022-05-07 04:02:00,,0821.7,5.01,0.00,29.6,28.4,00.0,38.4,31.4,14.1,0000.0,0011.91,0004.21,0002.65
2022-05-07 04:03:00,,0821.7,5.00,0.00,29.6,28.4,00.0,38.4,31.4,14.0,0000.0,0011.39,0004.25,0002.64
2022-05-07 04:04:00,,0821.8,4.99,0.00,29.6,28.5,00.0,38.4,31.5,13.5,0000.0,0011.07,0004.21,0002.62
2022-05-07 04:05:00,,0821.8,5.01,0.00,29.6,28.5,00.0,38.5,31.5,12.8,0000.0,0011.19,0004.16,0002.61
2022-05-07 04:06:00,,0821.8,4.99,0.00,29.6,28.6,00.0,38.5,31.5,12.9,0000.0,0010.64,0004.15,0002.58
2022-05-07 04:07:00,,0821.9,4.99,0.00,29.7,28.6,00.0,38.5,31.5,12.6,0000.0,0010.56,0004.16,0002.59
2022-05-07 04:08:00,,0821.8,4.99,0.00,29.7,28.7,00.0,38.5,31.5,12.2,0000.0,0010.84,0004.18,0002.57
2022-05-07 04:09:00,,0821.9,4.99,0.00,29.7,28.7,00.0,38.5,31.6,12.2,0000.0,0011.53,0004.14,0002.54
2022-05-07 04:10:00,,0821.8,4.99,0.00,29.7,28.7,00.0,38.5,31.6,12.3,0000.0,0012.81,0004.12,0002.49
2022-05-07 04:11:00,,0821.8,5.00,0.00,29.8,28.8,00.0,38.6,31.6,12.2,0000.0,0013.70,0004.11,0002.45
2022-05-07 04:12:00,,0821.8,5.01,0.00,29.8,28.8,00.0,38.6,31.6,12.1,0000.0,0015.55,0004.15,0002.43
2022-05-07 04:13:00,,0821.8,5.00,0.00,29.8,28.8,00.0,38.6,31.6,12.2,0000.0,0015.48,0004.08,0002.40
2022-05-07 04:14:00,,0821.8,4.99,0.00,29.8,28.8,00.0,38.6,31.6,12.3,0000.0,0015.11,0004.04,0002.39
2022-05-07 04:15:00,,0821.8,5.00,0.00,29.8,28.9,00.0,38.6,31.7,12.4,0000.0,0015.28,0004.04,0002.37
2022-05-07 04:16:00,,0821.8,5.01,0.00,29.8,28.9,00.0,38.7,31.6,12.3,0000.0,0016.11,0004.00,0002.33
2022-05-07 04:17:00,,0821.8,5.00,0.00,29.8,27.4,00.0,38.7,31.3,12.3,0000.0,0017.14,0003.97,0002.31
2022-05-07 04:18:00,,0821.7,5.00,0.00,29.6,25.7,00.0,38.6,31.0,12.4,0000.0,0017.26,0003.92,0002.29
2022-05-07 04:19:00,,0821.7,5.00,0.00,29.6,25.6,00.0,38.6,31.0,12.5,0000.0,0017.36,0003.90,0002.28
2022-05-07 04:20:00,,0821.8,4.99,0.00,29.5,26.0,00.0,38.5,31.0,12.6,0000.0,0016.18,0003.89,0002.27
2022-05-07 04:21:00,,0821.8,5.01,0.00,29.4,26.5,00.0,38.5,31.0,12.5,0000.0,0014.75,0003.88,0002.24
2022-05-07 04:22:00,,0821.8,5.01,0.00,29.4,26.9,00.0,38.4,31.0,12.5,0000.0,0013.76,0003.84,0002.21
2022-05-07 04:23:00,,0821.9,5.00,0.00,29.4,27.2,00.0,38.4,31.1,12.4,0000.0,0011.97,0003.74,0002.19
2022-05-07 04:24:00,,0822.0,4.99,0.00,29.4,27.5,00.0,38.4,31.1,12.4,0000.0,0012.27,0003.74,0002.20
2022-05-07 04:25:00,,0821.9,5.00,0.00,29.4,27.7,00.0,38.4,31.2,12.3,0000.0,0012.54,0003.74,0002.17
2022-05-07 04:26:00,,0821.9,5.01,0.00,29.5,27.9,00.0,38.4,31.2,12.3,0000.0,0012.18,0003.71,0002.17
2022-05-07 04:27:00,,0821.9,5.00,0.00,29.5,28.0,00.0,38.4,31.3,12.2,0000.0,0010.91,0003.74,0002.18
2022-05-07 04:28:00,,0822.0,5.00,0.00,29.5,28.1,00.0,38.4,31.3,12.2,0000.0,0009.85,0003.75,0002.17
2022-05-07 04:29:00,,0822.0,4.99,0.00,29.5,28.2,00.0,38.4,31.3,12.2,0000.0,0009.76,0003.78,0002.15
2022-05-07 04:30:00,,0822.0,5.00,0.00,29.5,28.3,00.0,38.4,31.4,12.2,0000.0,0009.45,0003.78,0002.13
2022-05-07 04:31:00,,0822.0,5.00,0.00,29.6,28.4,00.0,38.4,31.4,12.1,0000.0,0009.67,0003.77,0002.12
2022-05-07 04:32:00,,0822.0,5.00,0.00,29.6,28.4,00.0,38.4,31.4,12.1,0000.0,0010.89,0003.74,0002.13
2022-05-07 04:33:00,,0822.0,5.01,0.00,29.6,28.5,00.0,38.5,31.4,12.1,0000.0,0011.47,0003.72,0002.13
2022-05-07 04:34:00,,0822.0,5.00,0.00,29.6,28.5,00.0,38.5,31.4,12.1,0000.0,0012.37,0003.76,0002.14
2022-05-07 04:35:00,,0822.0,5.01,0.00,29.6,28.6,00.0,38.5,31.4,12.1,0000.0,0012.42,0003.75,0002.13
2022-05-07 04:36:00,,0822.0,5.01,0.00,29.7,28.6,00.0,38.5,31.5,11.9,0000.0,0011.91,0003.72,0002.13
2022-05-07 04:37:00,,0822.0,4.99,0.00,29.7,28.6,00.0,38.5,31.5,11.9,0000.0,0012.52,0003.69,0002.14
2022-05-07 04:38:00,,0822.0,4.99,0.00,29.7,28.7,00.0,38.5,31.5,11.9,0000.0,0012.68,0003.70,0002.13
2022-05-07 04:39:00,,0822.0,5.01,0.00,29.7,28.7,00.0,38.5,31.5,11.8,0000.0,0012.62,0003.70,0002.12
2022-05-07 04:40:00,,0822.0,5.00,0.00,29.7,28.7,00.0,38.6,31.5,11.7,0000.0,0012.50,0003.69,0002.11
2022-05-07 04:41:00,,0822.0,5.00,0.00,29.7,28.7,00.0,38.6,31.6,11.6,0000.0,0012.39,0003.66,0002.10
2022-05-07 04:42:00,,0822.0,4.99,0.00,29.8,28.7,00.0,38.6,31.6,11.5,0000.0,0012.49,0003.62,0002.08
2022-05-07 04:43:00,,0822.0,5.00,0.00,29.8,28.7,00.0,38.6,31.6,11.5,0000.0,0011.94,0003.63,0002.05
2022-05-07 04:44:00,,0822.0,5.00,0.00,29.8,28.7,00.0,38.6,31.6,11.4,0000.0,0011.44,0003.65,0002.06
2022-05-07 04:45:00,,0822.0,5.00,0.00,29.8,28.7,00.0,38.6,31.6,11.4,0000.0,0010.46,0003.64,0002.04
2022-05-07 04:46:00,,0822.1,5.01,0.00,29.8,28.7,00.0,38.7,31.6,11.3,0000.0,0010.19,0003.66,0002.03
2022-05-07 04:47:00,,0822.0,5.00,0.00,29.8,28.7,00.0,38.7,31.6,11.4,0000.0,0010.63,0003.65,0002.02
2022-05-07 04:48:00,,0822.1,4.99,0.00,29.8,28.7,00.0,38.7,31.6,11.3,0000.0,0011.40,0003.70,0002.00
2022-05-07 04:49:00,,0822.1,5.01,0.00,29.9,28.7,00.0,38.7,31.6,11.3,0000.0,0011.69,0003.66,0001.99
2022-05-07 04:50:00,,0822.1,5.01,0.00,29.9,28.7,00.0,38.7,31.6,11.3,0000.0,0012.22,0003.67,0001.99
2022-05-07 04:51:00,,0822.0,4.99,0.00,29.9,28.7,00.0,38.7,31.6,11.2,0000.0,0012.09,0003.61,0002.00
2022-05-07 04:52:00,,0822.0,5.00,0.00,29.9,28.7,00.0,38.7,31.6,11.1,0000.0,0012.35,0003.58,0002.00
2022-05-07 04:53:00,,0822.0,5.00,0.00,29.9,27.9,00.0,38.8,31.4,11.1,0000.0,0012.13,0003.54,0001.99
2022-05-07 04:54:00,,0822.0,5.00,0.00,29.7,25.8,00.0,38.7,31.0,11.1,0000.0,0011.38,0003.50,0001.99
2022-05-07 04:55:00,,0822.0,5.00,0.00,29.6,25.5,00.0,38.7,30.9,11.2,0000.0,0011.30,0003.50,0001.98
2022-05-07 04:56:00,,0822.0,5.01,0.00,29.5,25.8,00.0,38.6,30.9,11.1,0000.0,0011.63,0003.52,0001.97
2022-05-07 04:57:00,,0822.0,4.99,0.00,29.4,26.3,00.0,38.6,31.0,11.2,0000.0,0011.90,0003.54,0001.98
2022-05-07 04:58:00,,0822.0,5.00,0.00,29.4,26.7,00.0,38.5,31.0,11.2,0000.0,0011.41,0003.51,0001.96
2022-05-07 04:59:00,,0822.1,5.01,0.00,29.4,27.1,00.0,38.5,31.1,11.2,0000.0,0010.43,0003.48,0001.97
